Find Starlink 36932

NORAD ID: 68331 Int'l Des: 2026-059 Owner: SPXS Country: US Constellation: starlink operational
LEOCIRCULAR

Live Position

Loading 3D Globe...

About Starlink 36932

Description loading...

Upcoming Passes

Passes for default location (London). Set your location on the main map for personalized predictions.

Altitude History

Loading altitude history...

Two-Line Element Set

1 68331U 26059L 26127.13012554 .00066485 00000-0 11914-2 0 9999
2 68331 53.1593 74.6393 0001053 86.6848 273.4281 15.49353515 7151
Epoch: May 7, 2026 • Age: 10 hours

Current Status

Altitude 424.2 km
Velocity 7.66 km/s
Sub-Earth Point 52.98°N, 113.86°E
Launch Date Mar 22, 2026
Age 0.1 years
Type internet

Technical Details

Classification Payload
Mass 575.00 kg
Dry Mass 530.00 kg
Total Mass 575.00 kg
Length 0.30 m
Diameter 4.10 m
Span 29.00 m
Shape Box + pan
Manufacturer SPXS
Bus Type Starlink V2MO
Phase Status In Orbit
Owner/State SPXS/US

Most Searched